NETSAT-3

Last updated on Wed Oct 29 2025 00:03:53 GMT+0000 (Coordinated Universal Time)

1 46505U 20068V 25301.47766671 .00020313 00000+0 63343-3 0 9991 2 46505 97.8603 286.3719 0009116 82.6409 277.5868 15.33236278280066
UTC large
Height (km)
Speed (km/s)
/
Latitude / Longitude
Inclination (degrees)
Orbital Period (minutes)
Azimuth
Elevation
Range (km)
Doppler Factor

Next 0 passes for location: London (51.5072 / 0.1276)

Sorry there are no passes over London.